Date String (YYYY-MM-DD hh:mm:ss) UTC,Instrument flags,Ambient pressure (hPa),Sample flow (lpm),Bypass flow (lpm),Sample temperature (°C),Ambient temperature (°C),ASC tube jacket temperature (°C),LED temperature (°C),Box temperature (°C),Sample RH (%),Span deviation,Mass concentration (μg/m³),Mass concentration (μg/m³),Mass concentration (μg/m³)
DateTimeUTC,F1_M11,P_M11,Q1_M11,Q2_M11,T1_M11,T2_M11,T3_M11,T4_M11,T5_M11,U1_M11,ZSPAN_M11,X2_M11,X0_M11,X1_M11
2022-10-22 18:00:00,,0812.5,4.99,0.00,29.7,28.3,00.0,38.5,31.6,07.8,0000.0,0002.51,0008.04,0001.81
2022-10-22 18:01:00,,0812.5,5.01,0.00,29.7,27.2,00.0,38.4,31.6,07.7,0000.0,0002.51,0008.43,0001.79
2022-10-22 18:02:00,,0812.5,5.01,0.00,29.7,26.2,00.0,38.4,31.5,07.6,0000.0,0002.48,0008.52,0001.79
2022-10-22 18:03:00,,0812.5,4.99,0.00,29.6,26.4,00.0,38.3,31.5,07.6,0000.0,0002.36,0008.47,0001.76
2022-10-22 18:04:00,,0812.4,5.00,0.00,29.6,26.7,00.0,38.3,31.3,07.5,0000.0,0002.35,0008.34,0001.75
2022-10-22 18:05:00,,0812.4,4.99,0.00,29.5,27.0,00.0,38.3,31.2,07.5,0000.0,0002.36,0008.63,0001.75
2022-10-22 18:06:00,,0812.4,5.00,0.00,29.5,27.3,00.0,38.3,31.2,07.5,0000.0,0002.36,0008.77,0001.76
2022-10-22 18:07:00,,0812.4,5.00,0.00,29.5,27.6,00.0,38.3,31.3,07.5,0000.0,0002.33,0008.36,0001.77
2022-10-22 18:08:00,,0812.4,5.02,0.00,29.5,27.8,00.0,38.3,31.3,07.4,0000.0,0002.30,0008.01,0001.76
2022-10-22 18:09:00,,0812.3,5.00,0.00,29.6,28.0,00.0,38.3,31.4,07.4,0000.0,0002.28,0008.00,0001.74
2022-10-22 18:10:00,,0812.3,4.99,0.00,29.6,28.1,00.0,38.4,31.4,07.3,0000.0,0002.23,0008.26,0001.72
2022-10-22 18:11:00,,0812.3,5.01,0.00,29.6,28.3,00.0,38.4,31.5,07.3,0000.0,0002.14,0008.33,0001.71
2022-10-22 18:12:00,,0812.3,5.01,0.00,29.6,28.4,00.0,38.4,31.5,07.4,0000.0,0002.03,0007.94,0001.69
2022-10-22 18:13:00,,0812.3,4.98,0.00,29.7,28.4,00.0,38.4,31.6,07.4,0000.0,0002.00,0007.29,0001.67
2022-10-22 18:14:00,,0812.3,5.00,0.00,29.7,27.6,00.0,38.4,31.6,07.4,0000.0,0001.98,0007.10,0001.64
2022-10-22 18:15:00,,0812.3,5.01,0.00,29.6,26.4,00.0,38.4,31.4,07.5,0000.0,0001.98,0007.45,0001.63
2022-10-22 18:16:00,,0812.3,5.00,0.00,29.6,26.3,00.0,38.3,31.4,07.5,0000.0,0001.99,0006.48,0001.62
2022-10-22 18:17:00,,0812.3,5.00,0.00,29.6,26.6,00.0,38.3,31.3,07.4,0000.0,0001.98,0005.78,0001.62
2022-10-22 18:18:00,,0812.3,4.99,0.00,29.5,26.9,00.0,38.3,31.1,07.5,0000.0,0001.96,0005.74,0001.61
2022-10-22 18:19:00,,0812.3,5.00,0.00,29.5,27.2,00.0,38.3,31.2,07.6,0000.0,0001.99,0005.84,0001.59
2022-10-22 18:20:00,,0812.3,5.02,0.00,29.5,27.5,00.0,38.3,31.2,07.6,0000.0,0001.98,0005.85,0001.58
2022-10-22 18:21:00,,0812.3,4.99,0.00,29.5,27.7,00.0,38.3,31.3,07.5,0000.0,0002.00,0005.89,0001.58
2022-10-22 18:22:00,,0812.2,5.01,0.00,29.5,27.9,00.0,38.3,31.3,07.5,0000.0,0002.04,0005.36,0001.57
2022-10-22 18:23:00,,0812.1,4.98,0.00,29.5,28.1,00.0,38.3,31.4,07.6,0000.0,0002.05,0005.30,0001.57
2022-10-22 18:24:00,,0812.1,5.01,0.00,29.6,28.2,00.0,38.3,31.4,07.6,0000.0,0002.02,0005.03,0001.56
2022-10-22 18:25:00,,0812.1,4.99,0.00,29.6,28.3,00.0,38.3,31.5,07.6,0000.0,0002.01,0004.39,0001.58
2022-10-22 18:26:00,,0812.1,5.01,0.00,29.6,28.4,00.0,38.4,31.5,07.6,0000.0,0001.98,0004.11,0001.58
2022-10-22 18:27:00,,0812.1,5.01,0.00,29.6,28.5,00.0,38.4,31.6,07.5,0000.0,0002.01,0004.25,0001.57
2022-10-22 18:28:00,,0812.0,4.99,0.00,29.7,27.5,00.0,38.4,31.5,07.4,0000.0,0001.99,0004.37,0001.57
2022-10-22 18:29:00,,0812.0,5.01,0.00,29.6,26.4,00.0,38.3,31.4,07.4,0000.0,0002.02,0004.51,0001.57
2022-10-22 18:30:00,,0811.9,4.99,0.00,29.6,26.4,00.0,38.3,31.4,07.4,0000.0,0002.01,0004.45,0001.57
2022-10-22 18:31:00,,0812.1,5.01,0.00,29.6,26.7,00.0,38.3,31.3,07.6,0000.0,0002.03,0004.81,0001.58
2022-10-22 18:32:00,,0812.1,5.00,0.00,29.5,27.0,00.0,38.3,31.2,07.8,0000.0,0002.04,0004.58,0001.59
2022-10-22 18:33:00,,0812.1,5.01,0.00,29.5,27.3,00.0,38.3,31.2,07.8,0000.0,0002.00,0004.16,0001.58
2022-10-22 18:34:00,,0812.1,4.99,0.00,29.5,27.6,00.0,38.3,31.3,07.6,0000.0,0001.99,0004.69,0001.57
2022-10-22 18:35:00,,0812.1,5.00,0.00,29.5,27.8,00.0,38.3,31.3,07.6,0000.0,0001.97,0006.02,0001.56
2022-10-22 18:36:00,,0812.1,5.01,0.00,29.5,28.0,00.0,38.3,31.3,07.4,0000.0,0001.98,0005.99,0001.56
2022-10-22 18:37:00,,0812.0,4.99,0.00,29.5,28.1,00.0,38.3,31.4,07.3,0000.0,0002.00,0005.78,0001.56
2022-10-22 18:38:00,,0811.9,5.00,0.00,29.6,28.3,00.0,38.4,31.4,07.3,0000.0,0001.98,0006.24,0001.55
2022-10-22 18:39:00,,0811.9,5.02,0.00,29.6,28.4,00.0,38.4,31.5,07.5,0000.0,0002.02,0006.30,0001.55
2022-10-22 18:40:00,,0812.0,4.98,0.00,29.6,28.5,00.0,38.4,31.5,07.4,0000.0,0002.04,0006.31,0001.56
2022-10-22 18:41:00,,0811.9,5.01,0.00,29.7,28.5,00.0,38.4,31.5,07.2,0000.0,0002.01,0006.42,0001.57
2022-10-22 18:42:00,,0811.8,4.98,0.00,29.7,28.6,00.0,38.4,31.6,07.3,0000.0,0001.96,0006.05,0001.55
2022-10-22 18:43:00,,0811.8,5.02,0.00,29.7,27.5,00.0,38.4,31.5,07.4,0000.0,0001.94,0006.02,0001.55
2022-10-22 18:44:00,,0811.8,5.01,0.00,29.7,26.4,00.0,38.4,31.4,07.4,0000.0,0001.96,0006.13,0001.56
2022-10-22 18:45:00,,0811.7,4.99,0.00,29.6,26.4,00.0,38.3,31.4,07.6,0000.0,0001.98,0005.58,0001.57
2022-10-22 18:46:00,,0811.7,5.00,0.00,29.5,26.7,00.0,38.3,31.2,07.7,0000.0,0001.99,0004.24,0001.58
2022-10-22 18:47:00,,0811.7,5.00,0.00,29.5,27.0,00.0,38.3,31.2,07.8,0000.0,0001.97,0004.02,0001.57
2022-10-22 18:48:00,,0811.6,5.01,0.00,29.5,27.3,00.0,38.3,31.2,07.6,0000.0,0001.95,0003.74,0001.57
2022-10-22 18:49:00,,0811.6,5.00,0.00,29.5,27.6,00.0,38.3,31.3,07.6,0000.0,0001.94,0003.17,0001.57
2022-10-22 18:50:00,,0811.5,5.00,0.00,29.5,27.8,00.0,38.3,31.3,07.7,0000.0,0001.89,0003.22,0001.57
2022-10-22 18:51:00,,0811.6,4.98,0.00,29.5,28.0,00.0,38.3,31.4,07.7,0000.0,0001.86,0003.81,0001.56
2022-10-22 18:52:00,,0811.6,5.01,0.00,29.6,28.2,00.0,38.3,31.4,07.6,0000.0,0001.88,0003.75,0001.56
2022-10-22 18:53:00,,0811.5,5.00,0.00,29.6,28.3,00.0,38.3,31.5,07.5,0000.0,0001.94,0003.85,0001.57
2022-10-22 18:54:00,,0811.6,5.00,0.00,29.6,28.4,00.0,38.4,31.5,07.5,0000.0,0001.96,0003.90,0001.57
2022-10-22 18:55:00,,0811.6,5.01,0.00,29.6,28.5,00.0,38.4,31.5,07.4,0000.0,0001.94,0003.76,0001.56
2022-10-22 18:56:00,,0811.6,4.99,0.00,29.7,28.6,00.0,38.4,31.6,07.4,0000.0,0001.91,0003.67,0001.56
2022-10-22 18:57:00,,0811.5,4.99,0.00,29.7,28.0,00.0,38.4,31.6,07.6,0000.0,0001.92,0003.69,0001.56
2022-10-22 18:58:00,,0811.4,5.00,0.00,29.7,26.7,00.0,38.4,31.4,07.5,0000.0,0001.91,0003.65,0001.56
2022-10-22 18:59:00,,0811.4,5.00,0.00,29.6,26.2,00.0,38.3,31.4,07.2,0000.0,0001.89,0003.62,0001.56
